Location: Milton Keynes
(52.0316°N, 0.7531°W)
Time: 14:01:02
(UTC+00:00)

OTV 5 (USA 277) - Pass Details

Date: 02 February 2019
Orbit: 342 x 346 km, 54.5° (Epoch: 17 February)

Event Time Altitude Azimuth Distance (km) Brightness Sun altitude
Exits shadow 04:58:36 20° 83° (E) 874 ? -25.2°
Drops below altitude 10° 04:59:41 10° 75° (ENE) 1,299 ? -25.0°
Sets 05:01:43 0° 70° (ENE) 2,142 ? -24.7°
